Location: Bad Salzschlirf
(50.3750°N, 9.3000°E)
Time: 17:19:10
(UTC+02:00)

ISS - Pass Details

Date: 24 March 2023
Orbit: 413 x 421 km, 51.6° (Epoch: 29 March)

Event Time Altitude Azimuth Distance (km) Brightness Sun altitude
Rises 20:15:51 0° 277° (W) 2,357 1.6 -15.4°
Reaches altitude 10° 20:17:58 10° 279° (W) 1,492 0.3 -15.7°
Maximum altitude 20:21:18 70° 4° (N) 446 -3.7 -16.2°
Enters shadow 20:22:25 38° 77° (ENE) 656 -3.2 -16.4°
